{"data":{"norad_id":55294,"intl_designator":"2023-010AB","name":"STARLINK-5286","alt_names":[],"object_type":"PAYLOAD","status":"ACTIVE","operator":null,"country":"US","launch_date":"2023-01-19","launch_site_code":"AFWTR","launch_vehicle":null,"mission":null,"orbit_class":"UNKNOWN","rcs_meters":null,"size_class":null,"mass_kg":null,"dimensions":null,"purposes":["comms"],"wikipedia_slug":null,"has_3d_model":false,"image_url":null,"decayed_at":null,"tle_current":{"epoch":"2026-05-25T03:52:46.546176Z","epoch_age_seconds":61040,"freshness":"FRESH","line1":"1 55294U 23010AB  26145.16164984 -.00000321  00000+0 -19082-4 0  9999","line2":"2 55294  69.9991 211.5171 0003459 268.7359  91.3404 14.98329681184239","mean_motion":14.98329681,"eccentricity":0.0003459,"inclination_deg":69.9991,"raan_deg":211.5171,"arg_perigee_deg":268.7359,"mean_anomaly_deg":91.3404,"bstar":-1.9082e-5,"rev_number":18423,"period_min":96.107019587233,"perigee_km":569.65280536358,"apogee_km":574.46094948798,"semimajor_km":6950.1938774258,"source":"CELESTRAK","updated_at":"2026-05-25T13:38:17.735869Z"}}}